Temperature
4 5 4 4 4 5 4 5 5 6 7 8 8 8 8 7 7 7 6 6 6 6 6 6 7 8 8 9 9 10 10 10 11 11 11 11 11 12 12 12 12 12 11 11
3 4 4 4 5 5 5 5 5 6 6 8 8 7 7 7 6 6 6 6 5 5 5 6 6 7 7 8 8 9 10 10 11 11 11 11 11 11 11 11 11 11 11 11
4 4 4 4 5 5 5 5 5 5 6 7 7 7 7 6 5 5 5 5 5 5 5 5 6 6 7 7 8 8 9 9 10 10 10 11 11 11 11 11 11 11 11 11
3 3 3 6 6 5 5 5 5 5 6 6 6 6 5 5 5 5 5 4 4 5 5 5 6 6 6 7 7 8 8 9 9 10 10 10 10 11 11 11 11 10 10 10
2 3 4 6 5 4 4 5 5 5 5 5 5 5 6 5 4 4 4 4 4 4 5 5 5 6 6 6 7 7 8 8 9 9 9 10 10 10 10 10 10 10 10 10
2 2 3 6 5 4 4 4 5 4 4 4 4 5 6 4 3 3 3 3 4 4 5 5 5 5 6 6 6 7 7 8 8 9 9 9 10 10 10 10 10 10 10 10
2 2 4 5 4 4 4 5 4 4 4 4 4 4 4 3 3 3 3 3 4 4 5 5 5 5 5 6 6 6 7 8 8 8 9 9 9 9 9 9 9 10 9 9
2 2 3 5 4 4 4 4 3 3 3 3 3 2 2 2 2 2 3 3 3 4 4 5 5 5 5 5 6 6 7 7 8 8 8 9 8 9 9 9 9 9 9 9
3 4 6 4 4 3 3 3 3 3 2 2 2 2 2 2 2 2 2 2 3 4 4 5 5 5 5 5 5 6 6 7 7 7 8 8 8 8 8 9 9 8 8 8
2 4 4 3 3 2 2 2 2 1 1 1 1 1 1 1 1 1 2 2 3 3 4 4 5 5 5 5 5 6 6 6 6 7 7 7 8 8 8 8 8 8 8 8
2 3 4 3 3 2 2 1 1 1 1 1 1 1 1 1 1 1 1 2 2 3 3 4 4 4 5 5 5 5 5 6 6 6 6 7 7 7 8 8 8 8 8 8
3 4 3 3 2 2 1 1 1 0 0 0 0 -0 -0 0 0 0 1 1 2 2 3 3 4 4 4 5 5 5 5 5 5 6 6 6 6 7 7 8 8 8 8 8
2 2 2 1 1 1 0 -0 -0 -1 -1 -1 -1 -1 -1 -0 -0 0 0 1 1 2 3 3 3 4 4 4 4 5 5 5 5 5 5 6 6 6 6 7 7 7 7 7
1 0 0 0 -0 -0 -1 -1 -1 -1 -1 -1 -1 -1 -1 -1 -0 -0 0 0 1 1 2 3 3 3 3 4 4 4 4 4 5 5 5 5 5 6 6 6 6 6 6 6
-0 -1 -1 -1 -1 -1 -1 -2 -2 -2 -2 -2 -2 -2 -1 -1 -1 -1 -0 0 1 1 2 2 2 3 3 3 3 4 4 4 4 4 5 5 5 5 5 5 5 5 5 5
-1 -1 -1 -2 -2 -2 -2 -2 -2 -2 -2 -2 -2 -2 -2 -1 -1 -1 -0 -0 0 1 1 1 2 2 2 3 3 3 3 4 4 4 4 4 5 5 5 5 5 5 5 5
-2 -2 -2 -2 -2 -2 -2 -3 -3 -3 -3 -3 -3 -2 -2 -2 -1 -1 -1 -0 0 0 1 1 2 2 2 2 2 3 3 3 3 4 4 4 4 4 4 4 4 5 5 5
-2 -2 -3 -3 -3 -3 -3 -3 -3 -3 -3 -3 -3 -3 -3 -2 -2 -1 -1 -0 -0 0 1 1 1 1 2 2 2 2 2 3 3 3 4 4 4 4 4 4 4 4 4 4
-3 -3 -3 -3 -3 -3 -3 -3 -3 -3 -3 -3 -3 -3 -3 -2 -2 -2 -2 -1 -1 -0 0 1 1 1 1 1 2 2 2 2 3 3 3 3 3 4 4 4 4 4 4 4
-3 -3 -3 -4 -4 -4 -4 -4 -4 -4 -4 -4 -4 -3 -3 -3 -3 -2 -2 -2 -1 -1 -0 -0 0 0 1 1 1 1 2 2 2 2 2 2 3 3 3 3 3 4 4 4
-3 -4 -4 -4 -4 -4 -4 -4 -4 -4 -4 -4 -4 -4 -4 -3 -3 -3 -3 -2 -1 -1 -1 -1 -0 -0 0 0 1 1 1 2 2 2 2 2 2 3 3 3 3 4 4 4
-4 -4 -5 -5 -5 -5 -5 -5 -5 -5 -5 -5 -5 -5 -5 -4 -4 -3 -3 -3 -2 -1 -1 -1 -1 -1 -0 -0 0 0 1 1 1 2 2 2 2 2 3 3 3 3 3 4
-5 -5 -5 -6 -6 -6 -5 -5 -6 -6 -6 -5 -5 -5 -5 -5 -5 -4 -4 -3 -2 -2 -2 -2 -1 -1 -1 -0 -0 0 0 1 1 1 2 2 2 2 3 3 3 3 3 3
-5 -6 -6 -6 -6 -6 -6 -6 -6 -6 -6 -6 -6 -6 -6 -6 -5 -5 -4 -4 -3 -3 -2 -2 -1 -1 -1 -1 -0 -0 0 1 1 1 1 2 2 2 2 2 2 3 3 3
-6 -6 -7 -7 -7 -7 -7 -7 -7 -7 -7 -7 -6 -6 -6 -6 -6 -5 -5 -4 -3 -3 -3 -2 -2 -1 -1 -1 -1 -0 -0 0 1 1 1 1 2 2 2 2 2 2 2 3
-7 -7 -7 -8 -8 -8 -8 -8 -8 -8 -8 -7 -7 -6 -6 -6 -6 -5 -5 -4 -4 -3 -3 -2 -2 -2 -1 -1 -1 -1 -1 -0 0 0 1 1 1 2 2 2 2 2 2 2
-8 -8 -8 -8 -8 -8 -8 -9 -9 -8 -8 -8 -8 -7 -7 -6 -6 -5 -5 -4 -4 -3 -3 -3 -2 -2 -2 -1 -1 -1 -1 -1 -0 0 1 1 1 1 2 2 2 2 2 2
Wind_Speed
17 19 17 19 19 16 15 15 14 17 19 19 18 17 16 15 14 13 13 11 10 10 9 9 8 7 6 7 7 8 10 11 13 13 14 15 16 17 17 17 17 17 16 17
15 14 15 19 20 19 17 17 19 21 21 17 17 15 15 14 13 13 12 12 11 11 10 10 9 8 7 7 6 7 9 11 11 11 13 14 14 15 15 16 16 16 16 16
10 12 13 12 11 12 11 12 13 16 17 16 16 15 15 13 12 12 13 12 12 11 10 10 9 8 8 7 6 6 7 9 10 10 12 13 12 14 15 16 15 15 16 16
8 9 9 5 3 7 11 13 12 13 15 14 15 15 14 11 12 13 13 13 12 11 10 10 9 8 8 6 5 6 6 7 8 10 11 12 13 13 14 14 14 14 14 15
5 8 12 10 5 4 8 11 8 11 13 14 14 14 12 8 11 13 13 12 11 11 11 10 9 8 7 5 5 5 6 7 7 8 10 11 12 13 12 13 13 13 13 14
7 8 9 6 2 4 6 7 4 7 10 11 12 11 10 12 14 14 12 11 11 11 10 9 8 7 6 5 5 5 6 6 7 8 9 10 12 12 11 11 12 11 11 12
13 11 11 7 2 2 5 6 5 8 9 10 10 11 14 15 14 13 12 12 11 10 9 9 8 6 6 6 6 6 5 5 6 7 8 9 10 10 10 10 11 11 11 10
7 9 9 2 2 4 8 8 9 11 11 12 13 14 15 15 15 14 13 13 12 11 10 9 7 6 6 7 6 4 4 5 5 6 6 7 9 9 10 11 11 11 10 10
9 11 9 5 8 9 9 11 13 13 13 14 15 16 16 15 15 14 14 13 12 12 11 9 7 6 7 7 5 4 4 4 4 5 5 7 9 10 10 10 10 10 10 9
12 15 15 13 13 11 10 12 14 14 15 15 16 17 16 15 15 14 14 13 12 11 10 9 8 7 7 6 5 4 4 4 4 5 5 6 7 8 9 10 10 11 11 10
16 18 16 14 13 13 13 14 15 15 15 15 15 16 16 15 15 14 13 13 12 11 10 10 8 7 6 5 4 3 4 4 4 5 6 6 5 6 7 8 10 12 11 12
14 14 12 14 13 13 14 15 14 15 15 15 14 15 16 15 14 13 14 13 12 11 10 10 8 6 6 5 4 4 4 4 4 4 5 6 6 3 3 5 8 10 11 12
17 15 15 17 16 13 13 14 14 13 14 14 13 13 14 14 14 13 13 12 12 11 10 9 8 7 5 4 4 4 4 4 4 4 5 6 7 7 5 5 8 9 12 14
15 14 15 14 13 13 13 12 12 12 12 12 12 12 12 13 13 13 12 12 12 11 10 8 7 7 5 4 4 4 4 4 4 5 5 6 7 7 7 8 7 6 8 14
12 12 13 13 12 11 10 10 11 11 11 12 11 11 12 12 13 13 12 11 11 10 9 7 6 6 5 4 4 4 4 4 4 4 5 6 6 6 6 7 8 8 7 9
9 9 10 11 11 10 10 10 10 12 12 12 12 12 12 12 13 12 11 10 9 9 9 8 7 6 5 4 3 3 4 5 5 5 5 6 6 7 7 8 8 9 9 10
9 8 8 9 10 10 10 10 11 12 12 12 13 13 12 12 12 12 11 10 9 10 9 8 7 6 5 4 4 3 3 4 6 6 6 6 7 8 8 8 9 9 9 11
9 9 8 9 9 10 11 11 11 11 12 12 13 12 12 12 13 13 12 11 10 10 8 7 6 5 5 4 3 3 4 4 5 6 6 6 7 7 8 8 9 10 9 11
6 6 7 7 8 9 10 11 11 12 12 12 12 13 13 13 12 12 12 11 10 10 9 7 7 5 5 4 4 3 4 5 5 5 5 7 7 7 8 9 9 10 10 10
4 5 6 7 8 9 10 11 11 11 11 11 12 13 13 13 12 11 11 11 9 8 8 8 7 5 4 4 3 3 5 5 6 6 6 7 7 8 8 9 9 10 10 10
5 6 7 8 9 10 10 11 11 12 12 11 12 12 13 13 12 11 10 10 10 8 8 9 6 5 4 3 3 3 4 5 6 6 6 7 7 8 8 9 9 9 9 9
6 7 8 9 10 11 10 10 10 12 12 12 12 12 12 13 12 11 11 10 10 10 8 6 5 5 5 5 3 3 4 5 6 6 7 7 7 8 8 9 9 9 9 9
7 8 9 10 11 11 12 11 11 11 12 12 12 12 12 12 10 10 10 8 7 10 8 7 7 7 7 4 4 4 5 6 6 7 7 7 7 8 8 9 8 9 9 9
8 9 9 10 10 11 12 12 11 10 11 12 11 11 11 10 10 9 9 11 11 12 8 8 10 9 7 4 4 4 5 5 6 6 7 7 7 7 8 8 8 8 9 10
8 9 9 10 10 9 10 11 11 11 10 9 10 11 9 9 9 9 9 10 11 11 8 8 9 8 5 4 4 4 5 5 6 6 7 7 8 8 8 8 9 9 9 9
8 8 9 9 9 9 8 8 8 8 8 9 9 8 8 8 9 9 8 9 10 9 7 6 6 6 4 4 4 4 4 5 6 6 6 7 8 8 8 8 10 9 9 9
8 8 7 8 7 7 7 8 8 9 9 9 10 9 9 8 8 8 9 8 7 6 5 5 5 4 4 4 4 4 4 5 5 6 6 7 7 8 9 10 9 9 9 10
Wind_Direction
268 276 278 275 277 273 258 252 260 272 281 289 299 306 309 309 309 311 316 319 322 320 318 316 308 296 283 274 261 242 224 221 216 211 206 203 203 200 196 193 191 188 188 188
277 273 276 274 271 268 263 258 258 269 277 287 297 302 305 308 309 309 311 312 315 316 316 313 308 298 291 282 269 248 229 222 215 208 203 200 199 196 193 191 189 187 187 187
281 295 292 271 265 258 257 253 258 265 276 295 300 302 305 308 310 309 309 309 310 309 308 309 306 298 287 280 272 251 234 222 210 205 203 196 193 193 191 188 186 186 187 186
283 296 265 271 301 279 273 269 263 270 285 296 300 302 300 301 308 308 308 307 307 305 306 305 303 298 289 281 268 245 231 220 209 203 201 195 191 191 190 187 185 185 185 186
262 274 278 281 280 275 275 278 274 283 295 302 306 300 291 305 313 309 306 304 302 302 301 300 300 299 289 283 274 253 234 218 209 206 200 195 192 190 188 184 183 183 184 183
249 264 271 285 337 317 287 274 298 305 305 311 317 306 309 323 315 310 307 306 305 302 298 297 300 298 287 283 275 259 244 224 213 207 201 197 194 190 184 182 179 176 178 181
245 255 267 278 293 305 271 301 324 307 305 306 302 297 305 311 311 310 309 307 307 301 296 295 296 294 287 282 277 266 249 232 217 207 201 197 192 186 179 175 171 170 169 173
230 243 258 224 209 245 278 305 299 300 301 300 298 300 304 306 307 309 309 309 310 304 295 293 292 288 284 283 286 278 248 232 217 207 196 188 183 180 174 169 168 167 164 163
231 248 282 264 254 269 283 287 295 296 298 299 299 301 303 303 304 304 304 307 308 303 297 292 288 282 281 286 290 281 255 231 215 205 190 181 178 176 173 171 170 168 166 165
258 262 270 275 275 278 283 286 291 293 295 296 295 298 300 300 302 303 303 305 307 306 297 293 291 284 279 284 284 264 247 227 208 194 185 181 177 176 176 177 173 170 168 165
258 269 278 270 267 276 286 289 292 294 292 290 292 294 296 297 300 301 301 302 302 300 295 291 290 285 282 280 277 260 240 221 208 196 183 178 177 183 184 188 181 175 174 169
259 266 268 279 286 287 286 287 292 294 294 293 291 293 295 294 297 297 298 301 301 299 296 293 290 285 281 274 265 250 233 219 208 198 185 170 160 145 138 164 159 166 168 165
260 273 275 280 284 285 285 289 291 291 291 294 295 294 294 294 297 297 296 299 300 298 297 293 288 282 274 268 259 242 229 223 212 199 190 176 164 159 150 119 124 142 151 153
256 265 270 272 278 286 288 290 292 292 293 295 297 298 296 295 297 296 297 299 300 297 296 292 288 283 277 269 257 236 223 217 214 206 194 181 171 167 164 160 156 145 144 149
253 251 260 274 281 285 289 292 294 296 299 302 302 300 300 299 298 298 299 301 299 296 296 295 290 289 286 272 257 235 218 209 207 204 191 176 167 164 160 158 157 150 142 146
260 260 262 267 275 285 291 293 293 296 300 303 303 303 303 301 299 299 300 303 299 296 296 295 287 287 286 271 255 235 215 199 202 193 182 172 167 164 162 160 159 158 159 157
256 262 265 270 279 286 289 291 291 292 296 298 300 302 302 301 300 300 302 303 297 291 291 288 283 287 281 262 243 223 205 192 186 184 182 176 170 169 166 163 164 162 162 162
250 257 264 272 280 286 289 291 291 292 293 295 298 298 297 296 296 299 302 303 300 296 292 287 282 284 275 260 242 220 204 198 193 186 180 178 173 170 166 164 163 160 157 159
252 259 269 276 280 283 287 291 293 294 294 296 296 294 293 291 291 294 297 297 293 293 296 298 293 283 273 262 248 220 202 192 189 186 179 173 173 170 166 165 164 162 161 160
273 278 284 287 289 288 289 291 293 292 292 294 293 292 292 293 293 293 293 288 281 281 288 292 294 285 272 259 249 217 199 190 186 183 179 178 174 171 168 165 163 163 163 162
285 290 292 292 293 291 289 290 290 290 292 292 289 288 290 293 292 291 289 288 289 291 292 289 285 276 270 266 261 224 204 193 188 184 181 178 173 169 167 166 166 163 161 160
286 288 290 292 293 292 293 293 289 289 291 291 289 288 289 290 291 288 280 277 287 292 291 284 280 272 268 272 254 229 210 198 190 183 181 177 174 172 170 167 166 162 161 160
286 288 291 292 292 293 294 292 291 289 288 288 288 287 286 285 286 285 287 287 288 289 289 280 276 274 274 267 242 224 210 196 186 181 178 175 173 171 167 164 163 161 161 161
287 289 291 293 293 292 291 293 292 289 287 287 285 284 283 285 284 277 276 284 287 285 280 275 276 272 271 257 235 217 205 192 183 178 174 171 170 168 166 163 162 162 161 159
286 288 289 290 290 288 289 293 294 291 290 288 287 285 280 274 275 283 284 282 282 281 277 274 272 268 259 245 225 209 202 195 185 177 175 171 169 168 167 164 163 163 163 163
287 286 285 283 283 286 289 289 289 291 292 293 292 290 287 283 279 279 279 279 277 276 275 271 265 259 247 232 214 202 195 187 183 181 175 171 168 168 167 166 163 165 162 159
287 287 287 288 287 285 285 285 285 288 288 288 290 292 292 290 286 284 282 280 278 276 272 266 258 247 237 222 204 197 194 189 182 175 173 172 170 169 168 163 162 159 157 155
Height
1452 1447 1445 1442 1437 1435 1434 1429 1424 1409 1403 1397 1397 1396 1394 1391 1388 1385 1383 1380 1378 1375 1373 1371 1369 1368 1368 1367 1368 1370 1372 1374 1376 1380 1384 1389 1394 1399 1405 1410 1415 1421 1426 1431
1448 1442 1440 1435 1428 1425 1423 1421 1416 1410 1403 1398 1397 1395 1392 1389 1386 1383 1380 1378 1375 1373 1370 1368 1366 1364 1364 1363 1363 1364 1366 1368 1371 1374 1378 1383 1388 1393 1399 1404 1409 1415 1420 1425
1440 1436 1434 1423 1416 1415 1414 1411 1410 1405 1399 1396 1394 1392 1389 1387 1384 1381 1378 1375 1372 1370 1367 1364 1362 1361 1360 1359 1359 1359 1361 1363 1365 1369 1373 1377 1382 1388 1392 1398 1404 1409 1414 1419
1443 1438 1432 1411 1412 1412 1410 1405 1405 1402 1398 1396 1393 1390 1387 1384 1381 1378 1375 1371 1369 1366 1363 1361 1359 1357 1356 1355 1355 1355 1357 1359 1361 1365 1367 1372 1377 1382 1387 1393 1398 1403 1408 1414
1444 1434 1418 1409 1410 1411 1408 1402 1401 1399 1396 1394 1391 1386 1381 1380 1378 1375 1372 1368 1365 1362 1360 1357 1355 1353 1352 1351 1351 1351 1352 1354 1357 1360 1363 1367 1372 1377 1382 1387 1393 1398 1403 1408
1440 1435 1418 1403 1408 1408 1407 1399 1398 1397 1395 1393 1389 1384 1377 1376 1374 1370 1367 1364 1361 1359 1356 1354 1352 1350 1349 1348 1347 1347 1349 1351 1353 1356 1359 1363 1367 1372 1377 1383 1388 1393 1399 1404
1434 1427 1410 1405 1407 1407 1405 1397 1397 1396 1394 1392 1388 1385 1380 1375 1370 1367 1363 1360 1357 1355 1352 1350 1349 1347 1346 1345 1345 1345 1346 1348 1350 1353 1356 1360 1364 1368 1373 1378 1384 1389 1394 1400
1426 1422 1409 1402 1405 1404 1400 1398 1396 1394 1391 1388 1385 1381 1377 1373 1368 1363 1359 1356 1353 1350 1348 1346 1345 1344 1342 1342 1342 1342 1343 1345 1347 1350 1353 1356 1360 1364 1369 1374 1379 1384 1390 1395
1413 1405 1399 1400 1400 1399 1398 1395 1393 1391 1388 1385 1380 1376 1373 1369 1364 1360 1356 1353 1349 1347 1344 1342 1342 1341 1340 1339 1339 1339 1340 1342 1344 1347 1349 1353 1357 1361 1365 1370 1374 1379 1385 1390
1407 1398 1397 1397 1395 1395 1394 1392 1389 1386 1384 1380 1376 1372 1368 1364 1360 1356 1352 1349 1346 1343 1341 1339 1338 1338 1337 1336 1336 1337 1338 1339 1341 1343 1346 1350 1353 1357 1361 1365 1370 1375 1380 1385
1399 1394 1393 1391 1390 1390 1388 1386 1384 1381 1378 1375 1372 1367 1364 1360 1356 1352 1349 1345 1343 1340 1338 1336 1335 1335 1334 1334 1334 1334 1334 1336 1338 1341 1343 1346 1350 1354 1358 1362 1366 1370 1375 1380
1390 1388 1388 1385 1385 1384 1383 1380 1378 1375 1371 1369 1366 1362 1359 1355 1352 1348 1345 1341 1338 1336 1334 1333 1331 1331 1330 1330 1331 1331 1332 1333 1335 1338 1340 1343 1346 1351 1356 1360 1365 1369 1374 1378
1384 1383 1383 1381 1380 1378 1377 1374 1372 1369 1366 1363 1360 1358 1354 1350 1347 1344 1340 1337 1334 1332 1331 1329 1328 1327 1327 1327 1328 1328 1329 1330 1332 1335 1337 1340 1343 1347 1351 1357 1361 1366 1371 1375
1379 1379 1377 1375 1374 1373 1371 1369 1367 1364 1361 1358 1355 1352 1349 1345 1342 1339 1336 1333 1331 1328 1327 1325 1324 1323 1323 1323 1324 1325 1326 1328 1330 1332 1335 1337 1340 1344 1348 1352 1357 1362 1368 1373
1373 1372 1371 1370 1369 1367 1366 1364 1361 1359 1356 1353 1350 1347 1344 1341 1338 1335 1332 1329 1327 1324 1323 1321 1320 1319 1319 1319 1319 1320 1322 1324 1326 1329 1331 1334 1337 1341 1345 1350 1354 1359 1364 1370
1366 1366 1366 1365 1363 1362 1360 1359 1356 1354 1351 1348 1345 1342 1339 1337 1333 1330 1328 1325 1323 1320 1318 1317 1316 1315 1315 1315 1315 1317 1318 1320 1323 1325 1328 1331 1335 1338 1342 1347 1351 1355 1360 1365
1362 1361 1360 1360 1358 1357 1356 1354 1352 1349 1346 1343 1341 1338 1335 1332 1329 1326 1323 1321 1319 1316 1315 1313 1312 1311 1311 1311 1311 1313 1314 1317 1319 1322 1325 1328 1331 1335 1339 1343 1347 1352 1357 1362
1357 1357 1356 1355 1354 1352 1350 1349 1347 1344 1342 1339 1336 1333 1330 1327 1324 1321 1319 1317 1314 1312 1311 1310 1309 1308 1307 1307 1308 1308 1310 1313 1315 1318 1321 1325 1328 1332 1336 1340 1344 1349 1354 1360
1352 1352 1351 1351 1349 1348 1346 1344 1341 1339 1336 1334 1331 1328 1325 1322 1320 1317 1315 1312 1310 1307 1306 1306 1305 1304 1303 1303 1304 1305 1307 1309 1312 1314 1318 1322 1325 1329 1333 1337 1341 1346 1350 1355
1348 1348 1347 1346 1344 1343 1340 1338 1335 1333 1331 1328 1325 1322 1319 1317 1315 1312 1310 1307 1305 1303 1302 1301 1300 1299 1299 1300 1300 1301 1303 1306 1308 1311 1315 1318 1322 1326 1330 1334 1338 1343 1348 1352
1344 1343 1342 1340 1339 1337 1335 1332 1329 1327 1324 1322 1320 1317 1314 1311 1309 1307 1304 1301 1300 1299 1298 1296 1295 1295 1295 1296 1296 1298 1300 1302 1305 1308 1311 1315 1319 1323 1327 1331 1335 1340 1345 1350
1340 1338 1337 1335 1333 1330 1328 1326 1323 1321 1318 1316 1313 1311 1308 1305 1303 1301 1299 1297 1295 1294 1293 1292 1291 1292 1292 1292 1293 1294 1296 1298 1301 1304 1308 1312 1316 1319 1323 1328 1332 1337 1342 1346
1335 1333 1331 1330 1327 1324 1322 1320 1317 1314 1312 1309 1307 1305 1303 1300 1298 1296 1293 1292 1291 1290 1289 1288 1288 1288 1289 1289 1290 1291 1293 1295 1298 1301 1305 1309 1313 1317 1321 1325 1329 1334 1338 1343
1330 1328 1326 1324 1321 1318 1315 1313 1311 1308 1306 1303 1301 1299 1297 1294 1292 1290 1289 1287 1286 1285 1284 1284 1284 1284 1285 1286 1287 1288 1290 1292 1295 1298 1302 1306 1310 1314 1318 1322 1326 1331 1336 1340
1324 1322 1320 1318 1315 1312 1309 1307 1304 1302 1299 1297 1295 1293 1292 1289 1287 1285 1284 1282 1281 1281 1280 1280 1280 1281 1281 1282 1283 1285 1287 1289 1292 1296 1299 1303 1307 1311 1315 1319 1323 1328 1332 1337
1318 1316 1314 1312 1309 1307 1304 1301 1298 1296 1294 1291 1289 1288 1286 1284 1282 1280 1279 1277 1277 1276 1275 1275 1276 1277 1277 1279 1280 1282 1284 1286 1289 1293 1296 1300 1304 1308 1312 1316 1321 1325 1330 1334
1312 1310 1308 1305 1303 1301 1298 1296 1293 1291 1289 1287 1284 1282 1281 1279 1277 1275 1274 1273 1272 1271 1271 1272 1272 1273 1274 1275 1277 1279 1281 1284 1286 1289 1293 1297 1301 1305 1309 1314 1318 1323 1327 1332